Regional Weather Roundup
Issued by NWS

Home | Current Version | Previous Version | Text Only | Print | Product List | Glossary On
Versions: 1 2 3 4 5 6 7 8 9 10 11 12 13 14 15 16 17 18 19 20 21 22 23 24 25 26 27 28 29 30 31 32 33 34 35 36 37 38 39 40 41 42 43 44 45 46 47 48 49 50
000
ASUS43 KBIS 021720
RWRND

NORTH DAKOTA REGIONAL WEATHER ROUNDUP
NATIONAL WEATHER SERVICE BISMARCK ND
1200 PM CDT THU OCT 02 2014

NOTE: "FAIR" INDICATES FEW OR NO CLOUDS BELOW 12,000 FEET WITH NO
SIGNIFICANT WEATHER AND/OR OBSTRUCTIONS TO VISIBILITY.


NDZ001>003-009>011-017-021800-
NORTHWEST NORTH DAKOTA

CITY           SKY/WX    TMP DP  RH WIND       PRES   REMARKS
WILLISTON      CLOUDY    46  39  76 NW25      29.89R
MINOT          PTSUNNY   55  40  56 SW20      29.77R
MINOT AFB      CLOUDY    56  43  60 W18G28    29.76R
$$

NDZ018>021-031>035-040>046-021800-
SOUTHWEST NORTH DAKOTA

CITY           SKY/WX    TMP DP  RH WIND       PRES   REMARKS
BISMARCK       PTSUNNY   60  43  53 SW8       29.84F
DICKINSON      SUNNY     55  37  50 W17G26    29.86R
GARRISON         N/A     54  43  66 W13       29.81R
HETTINGER ARPT MOSUNNY   57  36  45 W17       29.90F
$$

NDZ004>008-012>016-024-026-027-054-021800-
NORTHEAST NORTH DAKOTA

CITY           SKY/WX    TMP DP  RH WIND       PRES   REMARKS
GRAND FORKS    MOSUNNY   62  46  55 W7        29.80S
GRND FRKS AFB  SUNNY     63  45  51 N9        29.81S
DEVILS LAKE    SUNNY     59  41  51 SW8       29.78F
$$

NDZ022-023-025-028>030-036>039-047>053-021800-
SOUTHEAST NORTH DAKOTA

CITY           SKY/WX    TMP DP  RH WIND       PRES   REMARKS
FARGO          PTSUNNY   61  49  64 W8        29.82F
JAMESTOWN      SUNNY     61  43  51 W8        29.83F
$$




USA.gov is the U.S. government's official web portal to all federal, state and local government web resources and services.